Weather Roundup
Issued by NWS

Home | Current Version | Previous Version | Text Only | Print | Product List | Glossary On
Versions: 1 2 3 4 5 6 7 8 9 10 11 12 13 14 15 16 17 18 19 20 21 22 23 24 25 26 27 28 29 30 31 32 33 34 35 36 37 38 39 40 41 42 43 44 45 46 47 48 49 50
000
NZUS93 KARX 011510
HRRWXR

CURRENT HOURLY OBSERVATIONS ACROSS
MUCH OF THE UPPER MISSISSIPPI VALLEY
NATIONAL WEATHER SERVICE LA CROSSE WI
1000 AM CDT FRI AUG 01 2014


...SOUTHEAST MINNESOTA...


CITY           SKY/WX    TMP DP  RH WIND       PRES   REMARKS
ROCHESTER      SUNNY     74  59  59 W6        30.10F
ROCHESTER/MAYO FAIR      72  55  54 NW5       30.09S
WINONA         SUNNY     73  59  60 CALM      30.07S
AUSTIN         SUNNY     73  59  60 NW3       30.09S
ALBERT LEA     SUNNY     73  61  64 W3        30.09S
DODGE CENTER   SUNNY     73  59  60 NW6       30.09S
PRESTON        SUNNY     73  63  72 NW3       30.10S
OWATONNA       SUNNY     72  59  64 CALM      30.09S
FARIBAULT      SUNNY     75  57  53 W3        30.08S
$$

...ELSEWHERE IN MINNESOTA...


CITY           SKY/WX    TMP DP  RH WIND       PRES   REMARKS
MINNEAPOLIS    SUNNY     75  62  64 W5        30.06S
INTNL FALLS    SUNNY     70  58  65 NE3       30.06S
DULUTH         SUNNY     66  53  63 SE3       30.07S
RED WING       SUNNY     73  61  64 CALM      30.05S
REDWOOD FALLS  SUNNY     72  59  63 VRB3      30.08S
MANKATO        SUNNY     72  59  64 NW5       30.09R
WORTHINGTON    SUNNY     70  63  78 SW3       30.13S
FAIRMONT       SUNNY     73  59  60 N3        30.10R
$$

...SOUTHWEST WISCONSIN...


CITY           SKY/WX    TMP DP  RH WIND       PRES   REMARKS
LA CROSSE      SUNNY     73  60  63 CALM      30.07S
PRAIRIE DU CHI SUNNY     72  60  66 CALM      30.08S
BOSCOBEL       SUNNY     74  61  63 VRB3      30.09S
LONE ROCK      SUNNY     76  62  62 SW3       30.08F
PLATTEVILLE    SUNNY     73  63  69 CALM      30.10S
FORT MC COY    SUNNY     71  59  65 W3        30.08S
CAMP DOUGLAS   MOSUNNY   75  64  69 W6        30.07S
VIROQUA        FAIR      73  59  63 W5        30.10S
WIS DELLS      SUNNY     75  56  53 NW6       30.08S
$$

...ELSEWHERE IN WISCONSIN...


CITY           SKY/WX    TMP DP  RH WIND       PRES   REMARKS
MILWAUKEE      MOSUNNY   78  57  48 W8        30.08R
MADISON        SUNNY     76  61  59 CALM      30.08S
GREEN BAY      SUNNY     71  64  78 VRB3      30.06R
EAU CLAIRE     SUNNY     73  62  68 CALM      30.05S
BLACK RVR FLS  FAIR      73  61  66 S3        30.06S
MEDFORD        MOSUNNY   68  63  85 CALM      30.07F
WAUSAU         SUNNY     70  61  73 VRB3      30.06R
WIS RAPIDS     TSTM      67  62  84 SW3       30.09R
MARSHFIELD     MOSUNNY   72  62  71 W6        30.07R
RICE LAKE      MOSUNNY   70  63  80 CALM      30.07F
$$

...NORTHEAST IOWA...


CITY           SKY/WX    TMP DP  RH WIND       PRES   REMARKS
WATERLOO       SUNNY     75  62  64 VRB3      30.09R
DUBUQUE        SUNNY     75  61  61 NW3       30.10S
DECORAH        SUNNY     73  59  60 CALM      30.09S
MASON CITY     SUNNY     74  63  68 NW3       30.11S
CHARLES CITY   SUNNY     72  64  78 CALM      30.11R
OELWEIN        SUNNY     73  64  73 VRB3      30.11R
$$

...ELSEWHERE IN IOWA...


CITY           SKY/WX    TMP DP  RH WIND       PRES   REMARKS
DES MOINES     MOSUNNY   75  61  61 CALM      30.09S
IOWA CITY      SUNNY     74  66  76 SE5       30.10S
FORT DODGE     SUNNY     72  61  68 CALM      30.11S
MARSHALLTOWN   SUNNY     72  64  76 NW3       30.10R
CEDAR RAPIDS   SUNNY     75  63  66 CALM      30.08S
$$

...NORTHERN ILLINOIS...


CITY           SKY/WX    TMP DP  RH WIND       PRES   REMARKS
CHICAGO-OHARE  MOSUNNY   78  56  46 VRB6      30.08S
DUPAGE         MOSUNNY   77  60  55 VRB5      30.09S
CHICAGO-MIDWAY MOSUNNY   76  58  53 SW6       30.09R
MOLINE         SUNNY     75  63  66 SW7       30.09S
ROCKFORD       MOSUNNY   76  61  59 SW5       30.11R
STERLING       MOSUNNY   75  63  64 SW5       30.11S
PEORIA         MOSUNNY   79  64  60 VRB6      30.10R
$$

NOTE: "FAIR" INDICATES FEW OR NO CLOUDS BELOW 12,000 FEET WITH NO
SIGNIFICANT WEATHER AND/OR OBSTRUCTIONS TO VISIBILITY. WIND
SPEEDS ARE IN MILES-PER-HOUR.



USA.gov is the U.S. government's official web portal to all federal, state and local government web resources and services.